EW4174 Weather Reports


time (UTC)temp
C
wind
direction
speed
KPH
gust
KPH
rain 1hr
cm
rain 24hr
cm
rain mn
cm
humidity
%
barometer
mb
20260509034536 22 115 4.8 11.3 0.00 0.00 0.00 93 1008.6
20260509033040 22 116 4.8 11.3 0.00 0.00 0.00 92 1008.4
20260509031535 23 114 6.4 12.9 0.00 0.00 0.00 92 1008.3
20260509030039 23 105 6.4 9.7 0.00 0.00 0.00 92 1008.3
20260509024534 23 103 1.6 4.8 0.00 0.00 0.00 91 1008.1
20260509023038 23 103 1.6 3.2 0.00 0.00 0.00 91 1007.8
20260509021533 23 103 3.2 6.4 0.00 0.00 0.00 91 1007.6
20260509020032 23 103 4.8 9.7 0.00 0.00 0.00 91 1007.6
20260509014531 23 102 6.4 12.9 0.00 0.00 0.00 90 1007.5
20260509013034 23 92 6.4 11.3 0.00 0.00 0.00 90 1007.5
20260509011530 23 90 4.8 11.3 0.00 0.00 0.00 90 1007.4
20260509010029 23 86 4.8 12.9 0.00 0.00 0.00 89 1007.1
20260509004536 23 86 4.8 11.3 0.00 0.00 0.00 89 1007.2
20260509003029 23 87 6.4 12.9 0.00 0.00 0.00 89 1007.2
20260509001528 24 92 8.0 12.9 0.00 0.00 0.00 89 1007.1
20260509000035 24 90 6.4 12.9 0.00 0.00 0.00 89 1007.1
20260508234535 24 88 6.4 11.3 0.00 0.00 0.00 89 1007.2
20260508233027 24 90 4.8 12.9 0.00 0.00 0.00 88 1007.1
20260508231523 24 101 9.7 12.9 0.00 0.00 0.00 88 1007.1
20260508230023 24 101 6.4 12.9 0.00 0.00 0.00 88 1007.1
20260508224523 24 101 4.8 12.9 0.00 0.00 0.00 88 1007.1
20260508223024 24 105 6.4 11.3 0.00 0.00 0.00 88 1007.2
20260508221518 24 104 8.0 14.5 0.00 0.00 0.00 88 1007.4
20260508220017 24 92 8.0 12.9 0.00 0.00 0.00 87 1007.5
20260508214516 24 74 6.4 16.1 0.00 0.00 0.00 87 1007.6
20260508213022 24 108 6.4 14.5 0.00 0.00 0.00 87 1007.8
20260508211511 23 71 6.4 14.5 0.00 0.00 0.00 88 1007.9
20260508210010 23 82 8.0 16.1 0.00 0.00 0.00 87 1008.1
20260508204509 23 73 8.0 14.5 0.00 0.00 0.00 87 1008.3
20260508203005 23 73 6.4 12.9 0.00 0.00 0.00 87 1008.5
20260508201612 23 74 6.4 12.9 0.00 0.00 0.00 88 1008.8
20260508200057 22 69 1.6 6.4 0.00 0.00 0.00 88 1008.9
20260508194619 22 69 4.8 8.0 0.00 0.00 0.00 88 1009.2
20260508193049 21 69 3.2 8.0 0.00 0.00 0.00 88 1009.4
20260508191546 21 68 3.2 6.4 0.00 0.00 0.00 87 1009.8
20260508190043 21 68 3.2 6.4 0.00 0.00 0.00 87 1009.9
20260508184542 21 68 4.8 8.0 0.00 0.00 0.00 87 1009.9
20260508183040 21 68 4.8 9.7 0.00 0.00 0.00 87 1010.2
20260508181557 20 55 3.2 8.0 0.00 0.00 0.00 87 1010.4
20260508180037 20 56 4.8 8.0 0.00 0.00 0.00 86 1010.4
20260508174540 20 49 4.8 8.0 0.00 0.00 0.00 86 1010.7
20260508173131 20 51 1.6 8.0 0.00 0.00 0.00 86 1010.9
20260508171533 20 50 4.8 9.7 0.00 0.00 0.00 86 1011.0
20260508170029 20 50 4.8 9.7 0.00 0.00 0.00 86 1011.0
20260508164524 19 46 3.2 9.7 0.00 0.00 0.00 87 1011.2
20260508163021 19 30 4.8 9.7 0.00 0.00 0.00 86 1011.2
20260508161523 19 360 4.8 12.9 0.00 0.00 0.00 87 1011.4
20260508160018 18 360 4.8 9.7 0.00 0.00 0.00 87 1011.6
20260508154512 18 360 3.2 9.7 0.00 0.00 0.00 87 1011.7
20260508153008 18 355 4.8 12.9 0.00 0.00 0.00 87 1011.8
20260508151507 18 355 3.2 12.9 0.00 0.00 0.00 87 1012.0
20260508150009 18 5 4.8 14.5 0.00 0.00 0.00 87 1012.1
20260508144505 18 11 6.4 9.7 0.00 0.00 0.00 87 1012.0
20260508143012 18 24 4.8 9.7 0.00 0.00 0.00 88 1012.2
20260508141502 17 27 6.4 14.5 0.00 0.00 0.00 88 1012.0
20260508140002 17 11 6.4 14.5 0.00 0.00 0.00 89 1012.2
20260508134605 17 16 6.4 14.5 0.00 0.00 0.00 90 1012.0
20260508133112 17 29 4.8 9.7 0.00 0.00 0.00 90 1012.0
20260508131559 17 13 4.8 12.9 0.00 0.00 0.00 90 1012.0
20260508130058 17 5 3.2 8.0 0.00 0.00 0.00 90 1012.0
20260508124557 17 5 1.6 6.4 0.00 0.00 0.00 90 1012.1
20260508123102 17 5 4.8 8.0 0.00 0.00 0.00 90 1011.8
20260508121557 17 5 1.6 9.7 0.00 0.00 0.00 90 1011.8
20260508120055 17 5 6.4 14.5 0.00 0.00 0.00 89 1012.0
20260508114553 17 347 8.0 12.9 0.00 0.00 0.00 89 1012.2
20260508113053 17 22 3.2 9.7 0.00 0.00 0.00 88 1012.3
20260508111555 17 27 3.2 6.4 0.00 0.00 0.00 87 1012.5
20260508110051 17 27 3.2 6.4 0.00 0.00 0.00 86 1012.3
20260508104549 17 23 4.8 6.4 0.00 0.00 0.00 85 1011.7
20260508103049 17 14 6.4 9.7 0.00 0.00 0.00 84 1011.9
20260508101548 17 360 8.0 12.9 0.00 0.00 0.00 84 1012.3
20260508100046 17 349 6.4 12.9 0.00 0.00 0.00 84 1012.6
20260508094551 17 342 6.4 14.5 0.00 0.00 0.00 84 1012.7
20260508093147 17 355 6.4 12.9 0.00 0.00 0.00 84 1012.6
20260508091544 17 17 4.8 12.9 0.00 0.00 0.00 84 1012.0
20260508090044 17 11 6.4 12.9 0.00 0.00 0.00 84 1011.9
20260508084541 17 16 4.8 12.9 0.00 0.00 0.00 83 1012.0
20260508083039 17 360 6.4 14.5 0.00 0.00 0.00 83 1012.3
20260508081538 17 337 9.7 16.1 0.00 0.00 0.00 83 1012.5
20260508080036 17 360 8.0 12.9 0.00 0.00 0.00 83 1012.0
20260508074537 17 26 6.4 9.7 0.00 0.00 0.00 83 1012.1
20260508073032 17 40 3.2 6.4 0.00 0.00 0.00 82 1012.5
20260508071533 17 44 4.8 11.3 0.00 0.00 0.00 82 1012.5
20260508070030 17 42 4.8 9.7 0.00 0.00 0.00 82 1012.5
20260508064529 17 360 1.6 8.0 0.00 0.00 0.00 82 1013.2
20260508063028 17 360 4.8 9.7 0.00 0.00 0.00 81 1013.2
20260508061529 17 315 8.0 14.5 0.00 0.00 0.00 81 1014.2
20260508060028 17 321 11.3 17.7 0.00 0.00 0.00 81 1014.1
20260508054524 17 355 3.2 8.0 0.00 0.00 0.00 82 1013.7
20260508053022 17 51 4.8 16.1 0.00 0.00 0.00 81 1013.1
20260508051525 17 23 8.0 16.1 0.00 0.00 0.00 82 1012.4
20260508050016 17 42 6.4 11.3 0.00 0.00 0.00 82 1012.5
20260508044513 18 12 4.8 14.5 0.00 0.00 0.00 81 1012.8
20260508043016 18 5 6.4 14.5 0.00 0.00 0.00 81 1013.1
20260508041512 18 355 6.4 17.7 0.00 0.00 0.00 81 1013.2
20260508040013 18 355 8.0 16.1 0.00 0.00 0.00 82 1013.6